sat.trackr.live / text

‹ back to catalog

STARLINK-31654

NORAD 59858 · 2024-098A

PAYLOAD ACTIVE UNKNOWN

§ Identity

Operator
Country
US
Launch date
2024-05-24
Launch site
AFETR
Launch vehicle
Mass (kg)
RCS (m²)

Purposes: comms

External: N2YO · Heavens-Above · Gunter

§ Orbital elements

Epoch: 2026-09-21T22:11:50.102880Z

Period
94.27 min
Inclination
43.0039°
Eccentricity
0.0000941
Mean motion
15.27600412 rev/d
Perigee alt
482.3 km
Apogee alt
483.6 km
Semi-major
6,861.1 km
B*
1.2545e-4
RAAN
242.3401°
Arg perigee
275.3784°
Mean anomaly
84.6960°
Rev number
13,193

§ Raw data

STARLINK-316541 59858U 24098A   26264.92488545  .00003194  00000+0  12545-3 0  99992 59858  43.0039 242.3401 0000941 275.3784  84.6960 15.27600412131930

JSON: /api/v1/satellites/59858 · /tle

For live sub-satellite position, see the globe view (requires WebGL).

§ Visibility from observer

Set your observer location to see the next 7 days of passes ≥ 10°. The values pass through the URL so the page stays shareable.

No JS? Fill the form by hand. The geolocation button needs JavaScript.